36.52977, -87.35945

Hourly Observations for October 11, 2018

Temp ( °F °C ) Dew Point ( °F °C ) Humidity (%) Winds ( mph kmh ) Pressure ( in mb ) Visibility ( mi km ) Precip ( " mm )
12:52 am 00:52 Clear 45 7.2 37 2.8 74 74 N 6 9 30.45 1031 10 16.09344 0 0
1:52 am 01:52 Clear 45 7.2 36 2.2 71 71 NNE 5 7 30.45 1031 10 16.09344 0 0
2:52 am 02:52 Clear 43 6.1 37 2.8 80 80 N 5 7 30.45 1031 10 16.09344 0 0
3:52 am 03:52 Clear 43 6.1 37 2.8 80 80 N 5 7 30.42 1030 10 16.09344 0 0
4:52 am 04:52 Clear 42 5.6 36 2.2 79 79 N 5 7 30.45 1031 10 16.09344 0 0
5:52 am 05:52 Clear 42 5.6 35 1.7 76 76 N 3 6 30.45 1031 10 16.09344 0 0
6:52 am 06:52 Clear 42 5.6 35 1.7 76 76 N 3 6 30.48 1032 10 16.09344 0 0
7:52 am 07:52 Sunny 44 6.7 36 2.2 73 73 NE 6 9 30.48 1032 10 16.09344 0 0
8:52 am 08:52 Sunny 45 7.2 37 2.8 74 74 NE 6 9 30.5 1033 10 16.09344 0 0
9:52 am 09:52 Sunny 51 10.6 36 2.2 56 56 E 13 20 30.5 1033 10 16.09344 0 0
10:52 am 10:52 Sunny 54 12.2 35 1.7 49 49 E 9 15 30.5 1033 10 16.09344 0 0
11:52 am 11:52 Sunny 57 13.9 35 1.7 44 44 ESE 9 15 30.5 1033 10 16.09344 0 0
12:52 pm 12:52 Sunny 59 15 33 0.6 38 38 NNE 9 15 30.45 1031 10 16.09344 0 0
1:52 pm 13:52 Sunny 62 16.7 31 -0.6 31 31 NE 7 11 30.42 1030 10 16.09344 0 0
2:52 pm 14:52 Sunny 62 16.7 28 -2.2 28 28 NE 10 17 30.42 1030 10 16.09344 0 0
3:52 pm 15:52 Sunny 63 17.2 28 -2.2 27 27 NE 7 11 30.39 1029 10 16.09344 0 0
4:52 pm 16:52 Sunny 62 16.7 29 -1.7 29 29 NNE 9 15 30.39 1029 10 16.09344 0 0
5:52 pm 17:52 Sunny 58 14.4 31 -0.6 36 36 NNE 6 9 30.39 1029 10 16.09344 0 0
6:52 pm 18:52 Clear 53 11.7 32 0 45 45 NNE 6 9 30.39 1029 10 16.09344 0 0
7:52 pm 19:52 Clear 51 10.6 33 0.6 50 50 NE 5 7 30.39 1029 10 16.09344 0 0
8:52 pm 20:52 Clear 49 9.4 33 0.6 55 55 NE 3 6 30.39 1029 10 16.09344 0 0
9:52 pm 21:52 Clear 46 7.8 34 1.1 63 63 ENE 6 9 30.39 1029 10 16.09344 0 0
10:52 pm 22:52 Clear 47 8.3 34 1.1 61 61 Calm 30.36 1028 10 16.09344 0 0
11:52 pm 23:52 Clear 45 7.2 35 1.7 68 68 E 3 6 30.36 1028 10 16.09344 0 0

Powered by AerisWeather